Time,TemperatureF,DewpointF,PressureIn,WindDirection,WindDirectionDegrees,WindSpeedMPH,WindSpeedGustMPH,Humidity,HourlyPrecipIn,Conditions,Clouds,dailyrainin,SoftwareType,DateUTC
2013-08-04 00:01:00,60.5,60.0,29.56,ENE,67,0.0,2.0,98,0.00,,,0.00,Rainwise IP-100,2013-08-04 04:01:00,
2013-08-04 00:06:00,60.0,59.0,29.56,ENE,67,1.0,2.0,98,0.00,,,0.00,Rainwise IP-100,2013-08-04 04:06:00,
2013-08-04 00:11:00,59.8,59.0,29.55,ENE,67,1.0,2.0,98,0.00,,,0.00,Rainwise IP-100,2013-08-04 04:11:00,
2013-08-04 00:16:00,59.7,59.0,29.55,ENE,67,1.0,2.0,98,0.00,,,0.00,Rainwise IP-100,2013-08-04 04:16:00,
2013-08-04 00:21:00,59.9,59.0,29.55,ENE,67,2.0,2.0,98,0.00,,,0.00,Rainwise IP-100,2013-08-04 04:21:00,
2013-08-04 00:26:00,59.9,59.0,29.55,ENE,67,2.0,2.0,98,0.00,,,0.00,Rainwise IP-100,2013-08-04 04:26:00,
2013-08-04 00:31:00,59.9,59.0,29.55,ENE,67,1.0,2.0,98,0.00,,,0.00,Rainwise IP-100,2013-08-04 04:31:00,
2013-08-04 00:36:00,59.8,59.0,29.55,East,90,0.0,2.0,98,0.00,,,0.00,Rainwise IP-100,2013-08-04 04:36:00,
2013-08-04 00:41:00,59.7,59.0,29.54,East,90,1.0,2.0,98,0.00,,,0.00,Rainwise IP-100,2013-08-04 04:41:00,
2013-08-04 00:46:00,59.6,59.0,29.55,East,90,1.0,2.0,98,0.00,,,0.00,Rainwise IP-100,2013-08-04 04:46:00,
2013-08-04 00:51:00,59.4,59.0,29.55,East,90,2.0,2.0,98,0.00,,,0.00,Rainwise IP-100,2013-08-04 04:51:00,
2013-08-04 00:56:00,59.4,59.0,29.55,East,90,1.0,2.0,98,0.00,,,0.00,Rainwise IP-100,2013-08-04 04:56:00,
2013-08-04 01:01:00,59.4,59.0,29.55,East,90,2.0,2.0,98,0.00,,,0.00,Rainwise IP-100,2013-08-04 05:01:00,
2013-08-04 01:06:00,59.5,59.0,29.55,East,90,1.0,2.0,98,0.00,,,0.00,Rainwise IP-100,2013-08-04 05:06:00,
2013-08-04 01:11:00,59.4,59.0,29.54,East,90,1.0,2.0,98,0.00,,,0.00,Rainwise IP-100,2013-08-04 05:11:00,
2013-08-04 01:16:00,59.3,58.0,29.54,East,90,1.0,2.0,98,0.00,,,0.00,Rainwise IP-100,2013-08-04 05:16:00,
2013-08-04 01:21:00,58.9,58.0,29.54,East,90,1.0,2.0,98,0.00,,,0.00,Rainwise IP-100,2013-08-04 05:21:00,
2013-08-04 01:26:00,58.9,58.0,29.54,East,90,2.0,2.0,98,0.00,,,0.00,Rainwise IP-100,2013-08-04 05:26:00,
2013-08-04 01:31:00,59.1,58.0,29.54,ENE,67,2.0,2.0,98,0.00,,,0.00,Rainwise IP-100,2013-08-04 05:31:00,
2013-08-04 01:36:00,59.3,58.0,29.53,ENE,67,2.0,2.0,98,0.00,,,0.00,Rainwise IP-100,2013-08-04 05:36:00,
2013-08-04 01:41:00,59.3,58.0,29.53,ENE,67,2.0,2.0,98,0.00,,,0.00,Rainwise IP-100,2013-08-04 05:41:00,
2013-08-04 01:46:00,59.0,58.0,29.53,ENE,67,1.0,2.0,98,0.00,,,0.00,Rainwise IP-100,2013-08-04 05:46:00,
2013-08-04 01:51:00,58.9,58.0,29.53,ENE,67,2.0,2.0,98,0.00,,,0.00,Rainwise IP-100,2013-08-04 05:51:00,
2013-08-04 01:56:00,58.8,58.0,29.52,ENE,67,2.0,2.0,98,0.00,,,0.00,Rainwise IP-100,2013-08-04 05:56:00,
2013-08-04 02:01:00,58.9,58.0,29.52,ENE,67,1.0,2.0,98,0.00,,,0.00,Rainwise IP-100,2013-08-04 06:01:00,
2013-08-04 02:06:00,58.7,58.0,29.52,ENE,67,2.0,2.0,98,0.00,,,0.00,Rainwise IP-100,2013-08-04 06:06:00,
2013-08-04 02:11:00,58.5,58.0,29.52,ENE,67,2.0,2.0,98,0.00,,,0.00,Rainwise IP-100,2013-08-04 06:11:00,
2013-08-04 02:16:00,58.4,57.0,29.53,ENE,67,1.0,2.0,98,0.00,,,0.00,Rainwise IP-100,2013-08-04 06:16:00,
2013-08-04 02:21:00,58.5,58.0,29.52,ENE,67,2.0,2.0,98,0.00,,,0.00,Rainwise IP-100,2013-08-04 06:21:00,
2013-08-04 02:26:00,58.4,57.0,29.52,ENE,67,1.0,2.0,98,0.00,,,0.00,Rainwise IP-100,2013-08-04 06:26:00,
2013-08-04 02:31:00,58.3,57.0,29.52,ENE,67,2.0,2.0,98,0.00,,,0.00,Rainwise IP-100,2013-08-04 06:31:00,
2013-08-04 02:36:00,58.1,57.0,29.52,ENE,67,2.0,2.0,98,0.00,,,0.00,Rainwise IP-100,2013-08-04 06:36:00,
2013-08-04 02:41:00,58.0,57.0,29.52,ENE,67,2.0,2.0,98,0.00,,,0.00,Rainwise IP-100,2013-08-04 06:41:00,
2013-08-04 02:46:00,57.9,57.0,29.53,ENE,67,1.0,2.0,97,0.00,,,0.00,Rainwise IP-100,2013-08-04 06:46:00,
2013-08-04 02:51:00,57.7,57.0,29.53,ESE,112,2.0,2.0,97,0.00,,,0.00,Rainwise IP-100,2013-08-04 06:51:00,
2013-08-04 02:56:00,57.9,57.0,29.53,ENE,67,1.0,2.0,97,0.00,,,0.00,Rainwise IP-100,2013-08-04 06:56:00,
2013-08-04 03:01:00,58.0,57.0,29.53,ENE,67,2.0,2.0,98,0.00,,,0.00,Rainwise IP-100,2013-08-04 07:01:00,
2013-08-04 03:06:00,58.0,57.0,29.53,ENE,67,1.0,2.0,98,0.00,,,0.00,Rainwise IP-100,2013-08-04 07:06:00,
2013-08-04 03:11:00,57.8,57.0,29.53,ESE,112,2.0,2.0,97,0.00,,,0.00,Rainwise IP-100,2013-08-04 07:11:00,
2013-08-04 03:16:00,57.6,57.0,29.53,ESE,112,2.0,2.0,97,0.00,,,0.00,Rainwise IP-100,2013-08-04 07:16:00,
2013-08-04 03:21:00,58.1,57.0,29.53,East,90,1.0,2.0,98,0.00,,,0.00,Rainwise IP-100,2013-08-04 07:21:00,
2013-08-04 03:26:00,58.3,57.0,29.53,East,90,2.0,2.0,98,0.00,,,0.00,Rainwise IP-100,2013-08-04 07:26:00,
2013-08-04 03:31:00,58.1,57.0,29.53,East,90,1.0,2.0,98,0.00,,,0.00,Rainwise IP-100,2013-08-04 07:31:00,
2013-08-04 03:36:00,58.3,57.0,29.53,ENE,67,1.0,2.0,98,0.00,,,0.00,Rainwise IP-100,2013-08-04 07:36:00,
2013-08-04 03:41:00,58.6,58.0,29.52,ENE,67,2.0,2.0,98,0.00,,,0.00,Rainwise IP-100,2013-08-04 07:41:00,
2013-08-04 03:46:00,58.4,57.0,29.53,ENE,67,1.0,2.0,98,0.00,,,0.00,Rainwise IP-100,2013-08-04 07:46:00,
2013-08-04 03:51:00,58.3,57.0,29.53,ENE,67,1.0,2.0,98,0.00,,,0.00,Rainwise IP-100,2013-08-04 07:51:00,
2013-08-04 03:56:00,58.1,57.0,29.53,ENE,67,2.0,2.0,98,0.00,,,0.00,Rainwise IP-100,2013-08-04 07:56:00,
2013-08-04 04:02:00,58.1,57.0,29.53,ENE,67,0.0,2.0,98,0.00,,,0.00,Rainwise IP-100,2013-08-04 08:02:00,
2013-08-04 04:06:00,58.2,57.0,29.53,ENE,67,1.0,2.0,98,0.00,,,0.00,Rainwise IP-100,2013-08-04 08:06:00,
2013-08-04 04:11:00,58.3,57.0,29.53,ENE,67,1.0,2.0,98,0.00,,,0.00,Rainwise IP-100,2013-08-04 08:11:00,
2013-08-04 04:16:00,58.3,57.0,29.53,ENE,67,1.0,2.0,98,0.00,,,0.00,Rainwise IP-100,2013-08-04 08:16:00,
2013-08-04 04:21:00,58.3,57.0,29.54,ENE,67,1.0,2.0,98,0.00,,,0.00,Rainwise IP-100,2013-08-04 08:21:00,
2013-08-04 04:26:00,58.1,57.0,29.53,ENE,67,1.0,2.0,98,0.00,,,0.00,Rainwise IP-100,2013-08-04 08:26:00,
2013-08-04 04:31:00,57.9,57.0,29.53,ENE,67,2.0,2.0,97,0.00,,,0.00,Rainwise IP-100,2013-08-04 08:31:00,
2013-08-04 04:36:00,57.5,57.0,29.53,ENE,67,1.0,2.0,97,0.00,,,0.00,Rainwise IP-100,2013-08-04 08:36:00,
2013-08-04 04:41:00,57.4,57.0,29.53,ENE,67,1.0,2.0,97,0.00,,,0.00,Rainwise IP-100,2013-08-04 08:41:00,
2013-08-04 04:46:00,57.4,57.0,29.54,ENE,67,2.0,2.0,97,0.00,,,0.00,Rainwise IP-100,2013-08-04 08:46:00,
2013-08-04 04:51:00,57.4,57.0,29.54,ENE,67,2.0,2.0,97,0.00,,,0.00,Rainwise IP-100,2013-08-04 08:51:00,
2013-08-04 04:56:00,57.3,56.0,29.54,ENE,67,2.0,2.0,97,0.00,,,0.00,Rainwise IP-100,2013-08-04 08:56:00,
2013-08-04 05:01:00,57.1,56.0,29.54,ENE,67,1.0,2.0,97,0.00,,,0.00,Rainwise IP-100,2013-08-04 09:01:00,
2013-08-04 05:06:00,57.2,56.0,29.54,ENE,67,1.0,2.0,97,0.00,,,0.00,Rainwise IP-100,2013-08-04 09:06:00,
2013-08-04 05:11:00,57.4,57.0,29.54,ENE,67,1.0,2.0,97,0.00,,,0.00,Rainwise IP-100,2013-08-04 09:11:00,
2013-08-04 05:16:00,57.5,57.0,29.54,ENE,67,2.0,2.0,97,0.00,,,0.00,Rainwise IP-100,2013-08-04 09:16:00,
2013-08-04 05:21:00,57.5,57.0,29.54,ENE,67,2.0,2.0,97,0.00,,,0.00,Rainwise IP-100,2013-08-04 09:21:00,
2013-08-04 05:26:00,57.5,57.0,29.54,ENE,67,2.0,2.0,97,0.00,,,0.00,Rainwise IP-100,2013-08-04 09:26:00,
2013-08-04 05:31:00,57.5,57.0,29.54,ENE,67,2.0,2.0,97,0.00,,,0.00,Rainwise IP-100,2013-08-04 09:31:00,
2013-08-04 05:36:00,57.5,57.0,29.54,ENE,67,2.0,2.0,97,0.00,,,0.00,Rainwise IP-100,2013-08-04 09:36:00,
2013-08-04 05:41:00,57.4,57.0,29.54,ENE,67,2.0,2.0,97,0.00,,,0.00,Rainwise IP-100,2013-08-04 09:41:00,
2013-08-04 05:46:00,57.3,56.0,29.55,ENE,67,2.0,2.0,97,0.00,,,0.00,Rainwise IP-100,2013-08-04 09:46:00,
2013-08-04 05:51:00,57.3,56.0,29.55,ENE,67,2.0,2.0,97,0.00,,,0.00,Rainwise IP-100,2013-08-04 09:51:00,
2013-08-04 05:56:00,57.5,57.0,29.55,ENE,67,2.0,2.0,97,0.00,,,0.00,Rainwise IP-100,2013-08-04 09:56:00,
2013-08-04 06:01:00,57.6,57.0,29.55,ENE,67,1.0,2.0,97,0.00,,,0.00,Rainwise IP-100,2013-08-04 10:01:00,
2013-08-04 06:06:00,57.6,57.0,29.55,ENE,67,1.0,2.0,97,0.00,,,0.00,Rainwise IP-100,2013-08-04 10:06:00,
2013-08-04 06:11:00,57.4,57.0,29.55,ENE,67,2.0,2.0,97,0.00,,,0.00,Rainwise IP-100,2013-08-04 10:11:00,
2013-08-04 06:16:00,57.2,56.0,29.55,ENE,67,1.0,2.0,97,0.00,,,0.00,Rainwise IP-100,2013-08-04 10:16:00,
2013-08-04 06:21:00,57.5,57.0,29.55,ENE,67,2.0,2.0,97,0.00,,,0.00,Rainwise IP-100,2013-08-04 10:21:00,
2013-08-04 06:26:00,57.7,57.0,29.55,ENE,67,2.0,2.0,97,0.00,,,0.00,Rainwise IP-100,2013-08-04 10:26:00,
2013-08-04 06:31:00,58.1,57.0,29.55,ENE,67,2.0,2.0,98,0.00,,,0.00,Rainwise IP-100,2013-08-04 10:31:00,
2013-08-04 06:36:00,58.3,57.0,29.55,ENE,67,1.0,2.0,98,0.00,,,0.00,Rainwise IP-100,2013-08-04 10:36:00,
2013-08-04 06:41:00,58.5,58.0,29.55,ENE,67,2.0,2.0,98,0.00,,,0.00,Rainwise IP-100,2013-08-04 10:41:00,
2013-08-04 06:46:00,58.5,58.0,29.55,ENE,67,0.0,2.0,98,0.00,,,0.00,Rainwise IP-100,2013-08-04 10:46:00,
2013-08-04 06:51:00,58.8,58.0,29.56,SSW,202,0.0,2.0,98,0.00,,,0.00,Rainwise IP-100,2013-08-04 10:51:00,
2013-08-04 06:56:00,58.9,58.0,29.56,WNW,292,1.0,2.0,98,0.00,,,0.00,Rainwise IP-100,2013-08-04 10:56:00,
2013-08-04 07:01:00,59.1,58.0,29.55,NW,315,2.0,2.0,98,0.00,,,0.00,Rainwise IP-100,2013-08-04 11:01:00,
2013-08-04 07:06:00,59.3,58.0,29.55,West,270,2.0,2.0,98,0.06,,,0.01,Rainwise IP-100,2013-08-04 11:06:00,
2013-08-04 07:11:00,59.6,59.0,29.56,SE,135,1.0,2.0,98,0.06,,,0.01,Rainwise IP-100,2013-08-04 11:11:00,
2013-08-04 07:16:00,59.8,59.0,29.56,SE,135,0.0,2.0,98,0.00,,,0.01,Rainwise IP-100,2013-08-04 11:16:00,
2013-08-04 07:21:00,59.9,59.0,29.56,SE,135,2.0,2.0,98,0.00,,,0.01,Rainwise IP-100,2013-08-04 11:21:00,
2013-08-04 07:26:00,60.2,59.0,29.56,SE,135,0.0,2.0,98,0.00,,,0.01,Rainwise IP-100,2013-08-04 11:26:00,
2013-08-04 07:31:00,60.5,60.0,29.56,SE,135,0.0,2.0,98,0.00,,,0.01,Rainwise IP-100,2013-08-04 11:31:00,
2013-08-04 07:36:00,60.9,60.0,29.56,SE,135,0.0,2.0,98,0.00,,,0.01,Rainwise IP-100,2013-08-04 11:36:00,
2013-08-04 07:41:00,60.9,60.0,29.56,SSE,157,0.0,2.0,98,0.00,,,0.01,Rainwise IP-100,2013-08-04 11:41:00,
2013-08-04 07:46:00,61.1,60.0,29.56,SE,135,1.0,2.0,98,0.00,,,0.01,Rainwise IP-100,2013-08-04 11:46:00,
2013-08-04 07:51:00,61.7,60.0,29.56,ESE,112,2.0,2.0,97,0.00,,,0.01,Rainwise IP-100,2013-08-04 11:51:00,
2013-08-04 07:56:00,62.1,60.0,29.56,SE,135,0.0,2.0,95,0.00,,,0.01,Rainwise IP-100,2013-08-04 11:56:00,
2013-08-04 08:01:00,63.3,61.0,29.56,SE,135,0.0,0.0,94,0.00,,,0.01,Rainwise IP-100,2013-08-04 12:01:00,
2013-08-04 08:06:00,64.4,62.0,29.56,South,180,0.0,2.0,91,0.00,,,0.01,Rainwise IP-100,2013-08-04 12:06:00,
2013-08-04 08:11:00,65.2,62.0,29.57,WSW,247,0.0,2.0,91,0.00,,,0.01,Rainwise IP-100,2013-08-04 12:11:00,
2013-08-04 08:16:00,65.8,62.0,29.57,WSW,247,0.0,2.0,91,0.00,,,0.01,Rainwise IP-100,2013-08-04 12:16:00,
2013-08-04 08:21:00,66.4,64.0,29.57,WSW,247,0.0,0.0,92,0.00,,,0.01,Rainwise IP-100,2013-08-04 12:21:00,
2013-08-04 08:26:00,66.8,63.0,29.58,WSW,247,1.0,2.0,89,0.00,,,0.01,Rainwise IP-100,2013-08-04 12:26:00,
2013-08-04 08:31:00,66.9,63.0,29.58,WNW,292,2.0,2.0,88,0.00,,,0.01,Rainwise IP-100,2013-08-04 12:31:00,
2013-08-04 08:36:00,66.7,62.0,29.58,WNW,292,0.0,2.0,87,0.00,,,0.01,Rainwise IP-100,2013-08-04 12:36:00,
2013-08-04 08:41:00,66.9,63.0,29.58,West,270,1.0,2.0,88,0.00,,,0.01,Rainwise IP-100,2013-08-04 12:41:00,
2013-08-04 08:46:00,67.3,66.0,29.58,West,270,0.0,2.0,98,0.00,,,0.01,Rainwise IP-100,2013-08-04 12:46:00,
2013-08-04 08:51:00,68.2,66.0,29.59,SSW,202,0.0,2.0,95,0.00,,,0.01,Rainwise IP-100,2013-08-04 12:51:00,
2013-08-04 08:56:00,68.6,66.0,29.59,SSW,202,0.0,2.0,92,0.00,,,0.01,Rainwise IP-100,2013-08-04 12:56:00,
2013-08-04 09:01:00,69.2,64.0,29.59,SSW,202,2.0,2.0,84,0.00,,,0.01,Rainwise IP-100,2013-08-04 13:01:00,
2013-08-04 09:06:00,69.3,63.0,29.60,WSW,247,1.0,2.0,80,0.00,,,0.01,Rainwise IP-100,2013-08-04 13:06:00,
2013-08-04 09:11:00,69.3,61.0,29.60,SW,225,1.0,2.0,76,0.00,,,0.01,Rainwise IP-100,2013-08-04 13:11:00,
2013-08-04 09:16:00,69.3,63.0,29.60,WSW,247,2.0,2.0,80,0.00,,,0.01,Rainwise IP-100,2013-08-04 13:16:00,
2013-08-04 09:21:00,69.5,62.0,29.60,WSW,247,2.0,2.0,77,0.00,,,0.01,Rainwise IP-100,2013-08-04 13:21:00,
2013-08-04 09:26:00,69.8,63.0,29.60,West,270,0.0,2.0,80,0.00,,,0.01,Rainwise IP-100,2013-08-04 13:26:00,
2013-08-04 09:31:00,69.9,62.0,29.60,West,270,2.0,2.0,77,0.00,,,0.01,Rainwise IP-100,2013-08-04 13:31:00,
2013-08-04 09:36:00,70.0,60.0,29.60,SW,225,2.0,2.0,72,0.00,,,0.01,Rainwise IP-100,2013-08-04 13:36:00,
2013-08-04 09:41:00,70.4,60.0,29.60,SW,225,2.0,2.0,71,0.00,,,0.01,Rainwise IP-100,2013-08-04 13:41:00,
2013-08-04 09:46:00,70.4,61.0,29.60,West,270,0.0,3.0,72,0.00,,,0.01,Rainwise IP-100,2013-08-04 13:46:00,
2013-08-04 09:51:00,70.7,60.0,29.60,WNW,292,2.0,2.0,70,0.00,,,0.01,Rainwise IP-100,2013-08-04 13:51:00,
2013-08-04 09:56:00,71.3,61.0,29.60,NNW,337,2.0,2.0,72,0.00,,,0.01,Rainwise IP-100,2013-08-04 13:56:00,
2013-08-04 10:01:00,71.7,60.0,29.60,West,270,2.0,2.0,68,0.00,,,0.01,Rainwise IP-100,2013-08-04 14:01:00,
2013-08-04 10:06:00,71.7,59.0,29.61,WSW,247,1.0,3.0,66,0.00,,,0.01,Rainwise IP-100,2013-08-04 14:06:00,
2013-08-04 10:11:00,71.7,59.0,29.61,SW,225,1.0,3.0,66,0.00,,,0.01,Rainwise IP-100,2013-08-04 14:11:00,
2013-08-04 10:16:00,71.7,60.0,29.61,SW,225,1.0,2.0,67,0.00,,,0.01,Rainwise IP-100,2013-08-04 14:16:00,
2013-08-04 10:21:00,71.7,60.0,29.61,West,270,2.0,4.0,67,0.00,,,0.01,Rainwise IP-100,2013-08-04 14:21:00,
2013-08-04 10:26:00,71.9,61.0,29.61,WSW,247,2.0,4.0,68,0.00,,,0.01,Rainwise IP-100,2013-08-04 14:26:00,
2013-08-04 10:31:00,71.9,61.0,29.61,West,270,1.0,2.0,68,0.00,,,0.01,Rainwise IP-100,2013-08-04 14:31:00,
2013-08-04 10:36:00,71.9,59.0,29.61,WSW,247,2.0,2.0,64,0.00,,,0.01,Rainwise IP-100,2013-08-04 14:36:00,
2013-08-04 10:41:00,71.9,60.0,29.61,WSW,247,2.0,4.0,67,0.00,,,0.01,Rainwise IP-100,2013-08-04 14:41:00,
2013-08-04 10:46:00,71.9,60.0,29.61,WSW,247,4.0,4.0,66,0.00,,,0.01,Rainwise IP-100,2013-08-04 14:46:00,
2013-08-04 10:51:00,71.9,59.0,29.61,WNW,292,2.0,4.0,64,0.00,,,0.01,Rainwise IP-100,2013-08-04 14:51:00,
2013-08-04 10:56:00,72.1,60.0,29.61,West,270,1.0,4.0,67,0.00,,,0.01,Rainwise IP-100,2013-08-04 14:56:00,
2013-08-04 11:01:00,72.1,59.0,29.61,West,270,1.0,4.0,65,0.00,,,0.01,Rainwise IP-100,2013-08-04 15:01:00,
2013-08-04 11:06:00,71.9,60.0,29.61,WSW,247,2.0,6.0,66,0.00,,,0.01,Rainwise IP-100,2013-08-04 15:06:00,
2013-08-04 11:11:00,72.3,60.0,29.61,SW,225,1.0,6.0,65,0.00,,,0.01,Rainwise IP-100,2013-08-04 15:11:00,
2013-08-04 11:16:00,72.8,60.0,29.61,WSW,247,2.0,5.0,65,0.00,,,0.01,Rainwise IP-100,2013-08-04 15:16:00,
2013-08-04 11:21:00,72.9,60.0,29.61,WSW,247,4.0,4.0,63,0.00,,,0.01,Rainwise IP-100,2013-08-04 15:21:00,
2013-08-04 11:26:00,73.1,60.0,29.61,SSW,202,3.0,5.0,63,0.00,,,0.01,Rainwise IP-100,2013-08-04 15:26:00,
2013-08-04 11:31:00,73.2,59.0,29.61,West,270,2.0,4.0,62,0.00,,,0.01,Rainwise IP-100,2013-08-04 15:31:00,
2013-08-04 11:36:00,72.7,60.0,29.61,SW,225,1.0,6.0,65,0.00,,,0.01,Rainwise IP-100,2013-08-04 15:36:00,
2013-08-04 11:41:00,73.0,60.0,29.61,WSW,247,1.0,6.0,64,0.00,,,0.01,Rainwise IP-100,2013-08-04 15:41:00,
2013-08-04 11:46:00,73.3,59.0,29.61,WSW,247,2.0,4.0,60,0.00,,,0.01,Rainwise IP-100,2013-08-04 15:46:00,
2013-08-04 11:51:00,73.0,60.0,29.61,WSW,247,4.0,5.0,63,0.00,,,0.01,Rainwise IP-100,2013-08-04 15:51:00,
2013-08-04 11:56:00,73.1,59.0,29.61,WSW,247,4.0,6.0,62,0.00,,,0.01,Rainwise IP-100,2013-08-04 15:56:00,
2013-08-04 12:01:00,73.2,59.0,29.61,SW,225,2.0,6.0,61,0.00,,,0.01,Rainwise IP-100,2013-08-04 16:01:00,
2013-08-04 12:06:00,73.2,59.0,29.60,WSW,247,4.0,6.0,61,0.00,,,0.01,Rainwise IP-100,2013-08-04 16:06:00,
2013-08-04 12:11:00,73.5,59.0,29.60,WSW,247,4.0,10.0,60,0.00,,,0.01,Rainwise IP-100,2013-08-04 16:11:00,
2013-08-04 12:16:00,73.3,59.0,29.60,SSE,157,2.0,6.0,62,0.00,,,0.01,Rainwise IP-100,2013-08-04 16:16:00,
2013-08-04 12:21:00,73.9,60.0,29.60,South,180,5.0,6.0,62,0.00,,,0.01,Rainwise IP-100,2013-08-04 16:21:00,
2013-08-04 12:26:00,74.3,60.0,29.60,South,180,5.0,6.0,60,0.00,,,0.01,Rainwise IP-100,2013-08-04 16:26:00,
2013-08-04 12:31:00,74.3,60.0,29.60,East,90,3.0,6.0,60,0.00,,,0.01,Rainwise IP-100,2013-08-04 16:31:00,
2013-08-04 12:36:00,74.5,60.0,29.60,SSW,202,2.0,7.0,60,0.00,,,0.01,Rainwise IP-100,2013-08-04 16:36:00,
2013-08-04 12:41:00,74.7,59.0,29.59,WSW,247,3.0,4.0,58,0.00,,,0.01,Rainwise IP-100,2013-08-04 16:41:00,
2013-08-04 12:46:00,74.9,59.0,29.60,SW,225,1.0,5.0,58,0.00,,,0.01,Rainwise IP-100,2013-08-04 16:46:00,
2013-08-04 12:51:00,75.2,59.0,29.60,SSW,202,3.0,6.0,57,0.00,,,0.01,Rainwise IP-100,2013-08-04 16:51:00,
2013-08-04 12:56:00,74.9,59.0,29.60,SW,225,3.0,5.0,58,0.00,,,0.01,Rainwise IP-100,2013-08-04 16:56:00,
2013-08-04 13:01:00,75.2,59.0,29.59,SSW,202,2.0,7.0,57,0.00,,,0.01,Rainwise IP-100,2013-08-04 17:01:00,
2013-08-04 13:06:00,75.4,59.0,29.59,ESE,112,3.0,10.0,56,0.00,,,0.01,Rainwise IP-100,2013-08-04 17:06:00,
2013-08-04 13:11:00,75.5,59.0,29.59,SSE,157,5.0,9.0,56,0.00,,,0.01,Rainwise IP-100,2013-08-04 17:11:00,
2013-08-04 13:16:00,75.3,58.0,29.59,WSW,247,1.0,9.0,56,0.00,,,0.01,Rainwise IP-100,2013-08-04 17:16:00,
2013-08-04 13:21:00,75.4,59.0,29.59,SSW,202,2.0,5.0,56,0.00,,,0.01,Rainwise IP-100,2013-08-04 17:21:00,
2013-08-04 13:26:00,75.5,59.0,29.59,SE,135,1.0,7.0,57,0.00,,,0.01,Rainwise IP-100,2013-08-04 17:26:00,
2013-08-04 13:31:00,75.7,59.0,29.59,South,180,3.0,7.0,57,0.00,,,0.01,Rainwise IP-100,2013-08-04 17:31:00,
2013-08-04 13:36:00,75.7,59.0,29.59,SE,135,1.0,9.0,56,0.00,,,0.01,Rainwise IP-100,2013-08-04 17:36:00,
2013-08-04 13:41:00,76.2,59.0,29.59,SW,225,3.0,6.0,56,0.00,,,0.01,Rainwise IP-100,2013-08-04 17:41:00,
2013-08-04 13:46:00,76.3,58.0,29.58,South,180,2.0,5.0,54,0.00,,,0.01,Rainwise IP-100,2013-08-04 17:46:00,
2013-08-04 13:51:00,75.7,59.0,29.58,West,270,2.0,7.0,56,0.00,,,0.01,Rainwise IP-100,2013-08-04 17:51:00,
2013-08-04 13:56:00,75.3,58.0,29.58,WSW,247,2.0,7.0,56,0.00,,,0.01,Rainwise IP-100,2013-08-04 17:56:00,
2013-08-04 14:01:00,74.6,60.0,29.58,SSW,202,2.0,8.0,60,0.00,,,0.01,Rainwise IP-100,2013-08-04 18:01:00,
2013-08-04 14:06:00,74.5,59.0,29.58,SW,225,1.0,6.0,59,0.00,,,0.01,Rainwise IP-100,2013-08-04 18:06:00,
2013-08-04 14:11:00,74.3,60.0,29.58,SSW,202,6.0,6.0,62,0.00,,,0.01,Rainwise IP-100,2013-08-04 18:11:00,
2013-08-04 14:16:00,74.3,60.0,29.57,South,180,1.0,7.0,60,0.00,,,0.01,Rainwise IP-100,2013-08-04 18:16:00,
2013-08-04 14:21:00,74.8,60.0,29.58,South,180,4.0,6.0,60,0.00,,,0.01,Rainwise IP-100,2013-08-04 18:21:00,
2013-08-04 14:26:00,75.4,59.0,29.58,SW,225,4.0,9.0,57,0.00,,,0.01,Rainwise IP-100,2013-08-04 18:26:00,
2013-08-04 14:31:00,75.6,58.0,29.58,South,180,1.0,7.0,55,0.00,,,0.01,Rainwise IP-100,2013-08-04 18:31:00,
2013-08-04 14:36:00,75.8,59.0,29.58,WSW,247,2.0,9.0,57,0.00,,,0.01,Rainwise IP-100,2013-08-04 18:36:00,
2013-08-04 14:41:00,75.8,57.0,29.57,SE,135,3.0,7.0,54,0.00,,,0.01,Rainwise IP-100,2013-08-04 18:41:00,
2013-08-04 14:46:00,75.9,57.0,29.58,ESE,112,1.0,7.0,53,0.00,,,0.01,Rainwise IP-100,2013-08-04 18:46:00,
2013-08-04 14:51:00,75.9,58.0,29.58,SSW,202,2.0,8.0,54,0.00,,,0.01,Rainwise IP-100,2013-08-04 18:51:00,
2013-08-04 14:56:00,75.8,57.0,29.58,SW,225,3.0,9.0,54,0.00,,,0.01,Rainwise IP-100,2013-08-04 18:56:00,
2013-08-04 15:01:00,75.9,56.0,29.58,SW,225,3.0,8.0,51,0.00,,,0.01,Rainwise IP-100,2013-08-04 19:01:00,
2013-08-04 15:06:00,76.0,57.0,29.58,South,180,4.0,11.0,53,0.00,,,0.01,Rainwise IP-100,2013-08-04 19:06:00,
2013-08-04 15:11:00,76.3,56.0,29.58,SSE,157,2.0,11.0,51,0.00,,,0.01,Rainwise IP-100,2013-08-04 19:11:00,
2013-08-04 15:16:00,75.8,56.0,29.58,South,180,4.0,9.0,51,0.00,,,0.01,Rainwise IP-100,2013-08-04 19:16:00,
2013-08-04 15:21:00,75.4,57.0,29.58,SSW,202,6.0,12.0,54,0.00,,,0.01,Rainwise IP-100,2013-08-04 19:21:00,
2013-08-04 15:26:00,75.7,58.0,29.58,SW,225,1.0,7.0,55,0.00,,,0.01,Rainwise IP-100,2013-08-04 19:26:00,
2013-08-04 15:31:00,75.7,58.0,29.58,SSW,202,2.0,8.0,55,0.00,,,0.01,Rainwise IP-100,2013-08-04 19:31:00,
2013-08-04 15:36:00,75.9,59.0,29.58,South,180,1.0,8.0,55,0.00,,,0.01,Rainwise IP-100,2013-08-04 19:36:00,
2013-08-04 15:41:00,76.4,58.0,29.58,SW,225,4.0,7.0,53,0.00,,,0.01,Rainwise IP-100,2013-08-04 19:41:00,
2013-08-04 15:46:00,75.9,57.0,29.58,SW,225,2.0,12.0,52,0.00,,,0.01,Rainwise IP-100,2013-08-04 19:46:00,
2013-08-04 15:51:00,75.8,59.0,29.58,SW,225,2.0,11.0,56,0.00,,,0.01,Rainwise IP-100,2013-08-04 19:51:00,
2013-08-04 15:56:00,75.6,59.0,29.58,South,180,2.0,9.0,56,0.00,,,0.01,Rainwise IP-100,2013-08-04 19:56:00,
2013-08-04 16:01:00,75.7,57.0,29.57,WSW,247,4.0,8.0,54,0.00,,,0.01,Rainwise IP-100,2013-08-04 20:01:00,
2013-08-04 16:06:00,75.1,59.0,29.58,WSW,247,4.0,9.0,57,0.00,,,0.01,Rainwise IP-100,2013-08-04 20:06:00,
2013-08-04 16:11:00,75.2,59.0,29.58,SSW,202,2.0,6.0,58,0.00,,,0.01,Rainwise IP-100,2013-08-04 20:11:00,
2013-08-04 16:16:00,75.2,58.0,29.58,South,180,7.0,11.0,56,0.00,,,0.01,Rainwise IP-100,2013-08-04 20:16:00,
2013-08-04 16:21:00,74.7,58.0,29.58,WSW,247,2.0,11.0,56,0.00,,,0.01,Rainwise IP-100,2013-08-04 20:21:00,
2013-08-04 16:26:00,74.4,58.0,29.58,South,180,2.0,12.0,57,0.00,,,0.01,Rainwise IP-100,2013-08-04 20:26:00,
2013-08-04 16:31:00,74.5,58.0,29.58,SSW,202,7.0,11.0,56,0.00,,,0.01,Rainwise IP-100,2013-08-04 20:31:00,
2013-08-04 16:36:00,74.5,59.0,29.57,SW,225,4.0,11.0,58,0.00,,,0.01,Rainwise IP-100,2013-08-04 20:36:00,
2013-08-04 16:41:00,74.7,59.0,29.57,SSW,202,2.0,6.0,59,0.00,,,0.01,Rainwise IP-100,2013-08-04 20:41:00,
2013-08-04 16:46:00,74.5,59.0,29.58,SSW,202,2.0,9.0,57,0.00,,,0.01,Rainwise IP-100,2013-08-04 20:46:00,
2013-08-04 16:51:00,74.6,59.0,29.58,SSW,202,4.0,7.0,58,0.00,,,0.01,Rainwise IP-100,2013-08-04 20:51:00,
2013-08-04 16:56:00,74.6,59.0,29.57,SSE,157,2.0,9.0,58,0.00,,,0.01,Rainwise IP-100,2013-08-04 20:56:00,
2013-08-04 17:01:00,74.7,59.0,29.58,West,270,1.0,7.0,58,0.00,,,0.01,Rainwise IP-100,2013-08-04 21:01:00,
2013-08-04 17:06:00,74.6,59.0,29.57,SE,135,2.0,6.0,57,0.00,,,0.01,Rainwise IP-100,2013-08-04 21:06:00,
2013-08-04 17:11:00,74.5,59.0,29.57,SSE,157,6.0,9.0,58,0.00,,,0.01,Rainwise IP-100,2013-08-04 21:11:00,
2013-08-04 17:16:00,73.6,59.0,29.57,South,180,2.0,9.0,60,0.00,,,0.01,Rainwise IP-100,2013-08-04 21:16:00,
2013-08-04 17:21:00,73.1,59.0,29.58,South,180,2.0,6.0,61,0.00,,,0.01,Rainwise IP-100,2013-08-04 21:21:00,
2013-08-04 17:26:00,72.3,59.0,29.58,South,180,2.0,11.0,64,0.00,,,0.01,Rainwise IP-100,2013-08-04 21:26:00,
2013-08-04 17:31:00,71.3,59.0,29.57,WSW,247,1.0,11.0,66,0.00,,,0.01,Rainwise IP-100,2013-08-04 21:31:00,
2013-08-04 17:36:00,70.5,59.0,29.57,SW,225,3.0,7.0,68,0.00,,,0.01,Rainwise IP-100,2013-08-04 21:36:00,
2013-08-04 17:41:00,69.8,59.0,29.57,West,270,4.0,8.0,69,0.00,,,0.01,Rainwise IP-100,2013-08-04 21:41:00,
2013-08-04 17:46:00,69.1,59.0,29.57,WSW,247,4.0,7.0,72,0.00,,,0.01,Rainwise IP-100,2013-08-04 21:46:00,
2013-08-04 17:51:00,68.7,59.0,29.57,West,270,2.0,6.0,72,0.00,,,0.01,Rainwise IP-100,2013-08-04 21:51:00,
2013-08-04 17:56:00,68.6,59.0,29.56,WSW,247,2.0,6.0,73,0.00,,,0.01,Rainwise IP-100,2013-08-04 21:56:00,
2013-08-04 18:01:00,68.5,59.0,29.56,SW,225,1.0,5.0,73,0.00,,,0.01,Rainwise IP-100,2013-08-04 22:01:00,
2013-08-04 18:06:00,68.5,59.0,29.56,SW,225,2.0,3.0,71,0.00,,,0.01,Rainwise IP-100,2013-08-04 22:06:00,
2013-08-04 18:11:00,68.6,57.0,29.56,WSW,247,2.0,4.0,69,0.00,,,0.01,Rainwise IP-100,2013-08-04 22:11:00,
2013-08-04 18:16:00,68.6,57.0,29.56,WSW,247,0.0,3.0,69,0.00,,,0.01,Rainwise IP-100,2013-08-04 22:16:00,
2013-08-04 18:21:00,68.5,59.0,29.56,SSW,202,0.0,1.0,72,0.00,,,0.01,Rainwise IP-100,2013-08-04 22:21:00,
2013-08-04 18:26:00,68.4,60.0,29.56,SSW,202,1.0,2.0,75,0.00,,,0.01,Rainwise IP-100,2013-08-04 22:26:00,
2013-08-04 18:31:00,68.3,60.0,29.56,West,270,0.0,2.0,75,0.00,,,0.01,Rainwise IP-100,2013-08-04 22:31:00,
2013-08-04 18:36:00,68.1,58.0,29.57,West,270,0.0,0.0,71,0.00,,,0.01,Rainwise IP-100,2013-08-04 22:36:00,
2013-08-04 18:41:00,67.9,59.0,29.57,West,270,0.0,0.0,74,0.00,,,0.01,Rainwise IP-100,2013-08-04 22:41:00,
2013-08-04 18:46:00,67.7,59.0,29.57,West,270,0.0,0.0,75,0.00,,,0.01,Rainwise IP-100,2013-08-04 22:46:00,
2013-08-04 18:51:00,67.4,59.0,29.57,West,270,2.0,2.0,74,0.00,,,0.01,Rainwise IP-100,2013-08-04 22:51:00,
2013-08-04 18:56:00,67.2,59.0,29.58,WSW,247,4.0,4.0,74,0.00,,,0.01,Rainwise IP-100,2013-08-04 22:56:00,
2013-08-04 19:01:00,67.0,60.0,29.58,West,270,2.0,6.0,77,0.00,,,0.01,Rainwise IP-100,2013-08-04 23:01:00,
2013-08-04 19:06:00,66.7,59.0,29.58,West,270,2.0,11.0,77,0.00,,,0.01,Rainwise IP-100,2013-08-04 23:06:00,
2013-08-04 19:11:00,66.7,60.0,29.58,NNE,22,0.0,6.0,80,0.00,,,0.01,Rainwise IP-100,2013-08-04 23:11:00,
2013-08-04 19:16:00,66.5,61.0,29.58,NNE,22,0.0,2.0,83,0.00,,,0.01,Rainwise IP-100,2013-08-04 23:16:00,
2013-08-04 19:21:00,66.4,60.0,29.58,West,270,0.0,2.0,82,0.00,,,0.01,Rainwise IP-100,2013-08-04 23:21:00,
2013-08-04 19:26:00,66.3,60.0,29.58,WSW,247,2.0,2.0,81,0.00,,,0.01,Rainwise IP-100,2013-08-04 23:26:00,
2013-08-04 19:31:00,66.3,60.0,29.58,SW,225,0.0,2.0,81,0.00,,,0.01,Rainwise IP-100,2013-08-04 23:31:00,
2013-08-04 19:36:00,66.1,60.0,29.58,SW,225,0.0,0.0,81,0.00,,,0.01,Rainwise IP-100,2013-08-04 23:36:00,
2013-08-04 19:41:00,65.9,60.0,29.58,East,90,1.0,2.0,83,0.00,,,0.01,Rainwise IP-100,2013-08-04 23:41:00,
2013-08-04 19:46:00,65.5,60.0,29.58,NNE,22,2.0,2.0,83,0.00,,,0.01,Rainwise IP-100,2013-08-04 23:46:00,
2013-08-04 19:51:00,65.1,60.0,29.58,NNE,22,0.0,2.0,84,0.00,,,0.01,Rainwise IP-100,2013-08-04 23:51:00,
2013-08-04 19:56:00,64.9,60.0,29.58,NNE,22,1.0,3.0,86,0.00,,,0.01,Rainwise IP-100,2013-08-04 23:56:00,
2013-08-04 20:01:00,64.6,60.0,29.58,NNE,22,0.0,2.0,86,0.00,,,0.01,Rainwise IP-100,2013-08-05 00:01:00,
2013-08-04 20:06:00,64.4,60.0,29.57,NNE,22,0.0,2.0,87,0.00,,,0.01,Rainwise IP-100,2013-08-05 00:06:00,
2013-08-04 20:11:00,64.2,60.0,29.58,NNE,22,0.0,0.0,87,0.00,,,0.01,Rainwise IP-100,2013-08-05 00:11:00,
2013-08-04 20:16:00,64.0,60.0,29.58,WSW,247,0.0,2.0,88,0.00,,,0.01,Rainwise IP-100,2013-08-05 00:16:00,
2013-08-04 20:21:00,63.9,60.0,29.58,North,360,0.0,2.0,89,0.00,,,0.01,Rainwise IP-100,2013-08-05 00:21:00,
2013-08-04 20:26:00,63.6,60.0,29.58,North,360,0.0,0.0,90,0.00,,,0.01,Rainwise IP-100,2013-08-05 00:26:00,
2013-08-04 20:31:00,63.4,61.0,29.58,North,360,0.0,0.0,91,0.00,,,0.01,Rainwise IP-100,2013-08-05 00:31:00,
2013-08-04 20:36:00,63.3,60.0,29.58,North,360,0.0,0.0,92,0.00,,,0.01,Rainwise IP-100,2013-08-05 00:36:00,
2013-08-04 20:41:00,63.1,61.0,29.58,North,360,0.0,0.0,93,0.00,,,0.01,Rainwise IP-100,2013-08-05 00:41:00,
2013-08-04 20:46:00,62.9,61.0,29.58,North,360,0.0,0.0,93,0.00,,,0.01,Rainwise IP-100,2013-08-05 00:46:00,
2013-08-04 20:51:00,62.9,61.0,29.58,North,360,0.0,0.0,93,0.00,,,0.01,Rainwise IP-100,2013-08-05 00:51:00,
2013-08-04 20:56:00,62.8,60.0,29.58,NE,45,0.0,0.0,93,0.00,,,0.01,Rainwise IP-100,2013-08-05 00:56:00,
2013-08-04 21:01:00,62.7,61.0,29.58,NE,45,0.0,0.0,94,0.00,,,0.01,Rainwise IP-100,2013-08-05 01:01:00,
2013-08-04 21:06:00,62.4,61.0,29.58,ENE,67,0.0,2.0,95,0.00,,,0.01,Rainwise IP-100,2013-08-05 01:06:00,
2013-08-04 21:11:00,62.2,60.0,29.58,ENE,67,0.0,2.0,95,0.00,,,0.01,Rainwise IP-100,2013-08-05 01:11:00,
2013-08-04 21:16:00,61.9,60.0,29.58,ENE,67,0.0,1.0,95,0.00,,,0.01,Rainwise IP-100,2013-08-05 01:16:00,
2013-08-04 21:21:00,61.8,60.0,29.58,ENE,67,2.0,0.0,95,0.00,,,0.01,Rainwise IP-100,2013-08-05 01:21:00,
2013-08-04 21:26:00,61.9,60.0,29.58,SSW,202,0.0,3.0,95,0.00,,,0.01,Rainwise IP-100,2013-08-05 01:26:00,
2013-08-04 21:31:00,61.9,60.0,29.58,NNE,22,0.0,2.0,94,0.00,,,0.01,Rainwise IP-100,2013-08-05 01:31:00,
2013-08-04 21:36:00,61.8,60.0,29.58,ENE,67,0.0,0.0,94,0.00,,,0.01,Rainwise IP-100,2013-08-05 01:36:00,
2013-08-04 21:41:00,61.6,60.0,29.57,West,270,1.0,2.0,95,0.00,,,0.01,Rainwise IP-100,2013-08-05 01:41:00,
2013-08-04 21:46:00,61.7,60.0,29.57,ESE,112,1.0,2.0,94,0.00,,,0.01,Rainwise IP-100,2013-08-05 01:46:00,
2013-08-04 21:51:00,61.4,60.0,29.57,East,90,2.0,2.0,94,0.00,,,0.01,Rainwise IP-100,2013-08-05 01:51:00,
2013-08-04 21:56:00,61.3,59.0,29.56,East,90,1.0,2.0,94,0.00,,,0.01,Rainwise IP-100,2013-08-05 01:56:00,
2013-08-04 22:01:00,61.0,59.0,29.57,East,90,1.0,2.0,95,0.00,,,0.01,Rainwise IP-100,2013-08-05 02:01:00,
2013-08-04 22:06:00,60.9,59.0,29.57,East,90,1.0,2.0,95,0.00,,,0.01,Rainwise IP-100,2013-08-05 02:06:00,
2013-08-04 22:11:00,60.8,59.0,29.57,East,90,2.0,2.0,96,0.00,,,0.01,Rainwise IP-100,2013-08-05 02:11:00,
2013-08-04 22:16:00,60.6,59.0,29.57,East,90,0.0,2.0,96,0.00,,,0.01,Rainwise IP-100,2013-08-05 02:16:00,
2013-08-04 22:21:00,60.6,59.0,29.57,East,90,1.0,2.0,96,0.00,,,0.01,Rainwise IP-100,2013-08-05 02:21:00,
2013-08-04 22:26:00,60.5,59.0,29.57,East,90,1.0,2.0,96,0.00,,,0.01,Rainwise IP-100,2013-08-05 02:26:00,
2013-08-04 22:31:00,60.4,59.0,29.57,ESE,112,2.0,2.0,97,0.00,,,0.01,Rainwise IP-100,2013-08-05 02:31:00,
2013-08-04 22:36:00,60.2,59.0,29.57,ESE,112,2.0,2.0,96,0.00,,,0.01,Rainwise IP-100,2013-08-05 02:36:00,
2013-08-04 22:41:00,60.3,58.0,29.57,ESE,112,1.0,2.0,95,0.00,,,0.01,Rainwise IP-100,2013-08-05 02:41:00,
2013-08-04 22:46:00,60.2,59.0,29.57,ESE,112,1.0,2.0,96,0.00,,,0.01,Rainwise IP-100,2013-08-05 02:46:00,
2013-08-04 22:51:00,59.9,59.0,29.57,ESE,112,1.0,2.0,96,0.00,,,0.01,Rainwise IP-100,2013-08-05 02:51:00,
2013-08-04 22:56:00,59.9,59.0,29.57,ESE,112,1.0,2.0,97,0.00,,,0.01,Rainwise IP-100,2013-08-05 02:56:00,
2013-08-04 23:01:00,59.7,58.0,29.57,ESE,112,2.0,2.0,97,0.00,,,0.01,Rainwise IP-100,2013-08-05 03:01:00,
2013-08-04 23:06:00,59.6,58.0,29.57,ENE,67,0.0,2.0,97,0.00,,,0.01,Rainwise IP-100,2013-08-05 03:06:00,
2013-08-04 23:11:00,59.6,58.0,29.57,ESE,112,1.0,2.0,96,0.00,,,0.01,Rainwise IP-100,2013-08-05 03:11:00,
2013-08-04 23:16:00,59.7,57.0,29.57,ESE,112,2.0,3.0,95,0.00,,,0.01,Rainwise IP-100,2013-08-05 03:16:00,
2013-08-04 23:21:00,59.8,57.0,29.57,ESE,112,0.0,2.0,95,0.00,,,0.01,Rainwise IP-100,2013-08-05 03:21:00,
2013-08-04 23:26:00,59.6,57.0,29.56,South,180,0.0,2.0,95,0.00,,,0.01,Rainwise IP-100,2013-08-05 03:26:00,
2013-08-04 23:31:00,59.4,58.0,29.56,ESE,112,2.0,2.0,96,0.00,,,0.01,Rainwise IP-100,2013-08-05 03:31:00,
2013-08-04 23:36:00,59.2,57.0,29.57,ESE,112,1.0,2.0,96,0.00,,,0.01,Rainwise IP-100,2013-08-05 03:36:00,
2013-08-04 23:41:00,59.1,58.0,29.56,East,90,1.0,2.0,97,0.00,,,0.01,Rainwise IP-100,2013-08-05 03:41:00,
2013-08-04 23:46:00,59.1,57.0,29.56,East,90,0.0,2.0,96,0.00,,,0.01,Rainwise IP-100,2013-08-05 03:46:00,
2013-08-04 23:51:00,58.9,58.0,29.57,East,90,2.0,2.0,97,0.00,,,0.01,Rainwise IP-100,2013-08-05 03:51:00,
2013-08-04 23:56:00,58.7,58.0,29.56,East,90,2.0,2.0,98,0.00,,,0.01,Rainwise IP-100,2013-08-05 03:56:00,